Regional Weather Roundup
Issued by NWS

Home | Current Version | Previous Version | Graphics & Text | Print | Product List | Glossary On
Versions: 1 2 3 4 5 6 7 8 9 10 11 12 13 14 15 16 17 18 19 20 21 22 23 24 25 26 27 28 29 30 31 32 33 34 35 36 37 38 39 40 41 42 43 44 45 46 47 48 49 50
067
ASUS45 KBOU 082007
RWRCO

WEATHER ROUNDUP FOR COLORADO
NATIONAL WEATHER SERVICE DENVER/BOULDER CO
100 PM MST MON FEB 08 2016

NOTE: "FAIR" INDICATES FEW OR NO CLOUDS BELOW 12000 FEET WITH NO
SIGNIFICANT WEATHER AND/OR OBSTRUCTIONS TO VISIBILITY.

COZ001>005-013-030-031-082100-
...NORTHWEST COLORADO...

CITY           SKY/WX    TMP DP  RH WIND       PRES   REMARKS
CRAIG          CLOUDY    19  11  70 CALM      30.57F
HAYDEN         CLOUDY    23  12  63 SW5       30.56F WCI  17
MEEKER         CLOUDY    30  18  60 CALM      30.55F
MOUNT WERNER   NOT AVBL
STEAMBOAT SPGS CLOUDY    26  15  63 CALM      30.54F
WALDEN         SUNNY     30  18  59 CALM      30.50F
$$

COZ006>008-011-082100-
...WEST CENTRAL VALLEYS...

CITY           SKY/WX    TMP DP  RH WIND       PRES   REMARKS
GRAND JUNCTION SUNNY     34  22  61 E6        30.57F WCI  29
MONTROSE       SUNNY     37  20  50 N5        30.57F
EAGLE          SUNNY     30  19  64 CALM      30.57F
RIFLE          CLOUDY    36  19  50 N3        30.56F
DELTA          SUNNY     38  23  54 W6        30.58F
NUCLA          NOT AVBL
$$

COZ017>023-064>068-082100-
...SOUTHWEST COLORADO...

CITY           SKY/WX    TMP DP  RH WIND       PRES   REMARKS
DURANGO        SUNNY     42  19  39 NE3       30.44F
CORTEZ         SUNNY     47  24  40 W13       30.44F
PAGOSA SPRINGS SUNNY     42  20  40 S3        30.43F
TELLURIDE      SUNNY     46  12  26 NE6       30.52F
WOLF CREEK PAS SUNNY     32  12  43 NE31G38   30.54F HAZE    WCI  17
$$

COZ009-010-012-014-032>034-037-058>063-082100-
...CENTRAL COLORADO...

CITY           SKY/WX    TMP DP  RH WIND       PRES   REMARKS
ASPEN          SUNNY     37  18  46 NW6       30.51F
BUENA VISTA    CLOUDY    45  18  34 N25G32    30.40F
COPPER MTN     MOSUNNY   28  18  64 W18G26    30.51F WCI  16
BERTHOUD PASS  PTSUNNY   18   7  62 NW30G38   30.47S WCI  -2
COTTONWOOD PAS CLOUDY    43  14  31 CALM      30.45F
GUNNISON       SUNNY     16   7  67 E3        30.58F
KREMMLING      SUNNY     32  18  55 CALM      30.54F
LEADVILLE      CLOUDY    34  16  47 N15G23    30.46F WCI  24
MONARCH PASS   CLOUDY    27  16  63 W24G33    30.60F WCI  12
SALIDA         NOT AVBL
SUNLIGHT       CLOUDY    32  21  64 CALM        N/A
WILKERSON PASS CLOUDY    32  14  47 N13G25    30.45F WCI  22
$$

COZ069>075-082100-
...SAN LUIS VALLEY/SANGRE DE CRISTO MOUNTAINS...

CITY           SKY/WX    TMP DP  RH WIND       PRES   REMARKS
ALAMOSA        SUNNY     44  14  29 VRB5      30.43F
LA VETA PASS   SUNNY     39  14  35 SW6       30.44F
SAGUACHE       SUNNY     45  19  36 N7        30.44F
$$

COZ035-036-038>040-082100-
...NORTHERN COLORADO FRONT RANGE...

CITY           SKY/WX    TMP DP  RH WIND       PRES   REMARKS
DENVER INTL AP PTSUNNY   40  22  48 VRB3      30.35F
DMNS CITY PARK   N/A     44  19  35 E8G17     30.33F
AURORA         PTSUNNY   40  22  48 E5        30.35F
FRONT RANGE AP MOSUNNY   39  19  45 CALM      30.36F
ERIE MUNI ARPT SUNNY     44  20  39 SE6       30.35F
BOULDER MUN AP SUNNY     45  23  42 E5        30.34F
CENTENNIAL     PTSUNNY   40  21  46 E8        30.34F
BROOMFIELD     MOSUNNY   45  19  36 SE7       30.34F
FORT COLLINS   SUNNY     36  21  55 S9        30.35F
LONGMONT       SUNNY     46  22  38 CALM      30.36F
$$

COZ041-046-047-076>085-087-088-082100-
...PIKES PEAK/PALMER DIVIDE AND SOUTHERN FOOTHILLS...

CITY           SKY/WX    TMP DP  RH WIND       PRES   REMARKS
COLO. SPRINGS  MOSUNNY   34  21  59 CALM      30.37F
A. F. ACADEMY  SUNNY     36  21  53 S7        30.35F
SCHRIEVER AFB  NOT AVBL
ELLICOTT       NOT AVBL
FALCON         SUNNY     38  20  48 W7        30.36F
FORT CARSON    SUNNY     35  24  64 SE8       30.36F WCI  28
LIMON          SUNNY     36  23  59 N9        30.34F
MONUMENT HILL  SUNNY     34  21  60 S5        30.36F WCI  30
TRINIDAD       SUNNY     45  18  34 VRB3      30.39F
$$

COZ042>045-048>051-090-091-082100-
...NORTHEAST COLORADO...

CITY           SKY/WX    TMP DP  RH WIND       PRES   REMARKS
GREELEY ARPT   SUNNY     30  21  69 CALM      30.36F
AKRON          CLOUDY    35  25  66 NW16      30.32F WCI  25
BURLINGTON     SUNNY     36  19  50 N15       30.31F
WRAY           CLOUDY    38  21  49 NW18      30.34F
STERLING       CLOUDY    39  28  65 NW12      30.32F
HOLYOKE        CLOUDY    41  21  45 NW17G23   30.30F
FORT MORGAN    SUNNY     37  23  58 W10       30.34F
$$

COZ086-089-092>099-082100-
...SOUTHEAST COLORADO...

CITY           SKY/WX    TMP DP  RH WIND       PRES   REMARKS
PUEBLO         SUNNY     44  23  43 CALM      30.38F
LA JUNTA       SUNNY     44  21  40 NW16      30.39F
LAMAR          SUNNY     45  23  42 W17       30.37F
SPRINGFIELD      N/A     44  19  36 NW21G28   30.37F
$$




USA.gov is the U.S. government's official web portal to all federal, state and local government web resources and services.